Alexandria, LA

7:35 AM CST on December 11, 2017 (GMT -0600)
Alexandria International

Weather History for KAEX - January, 2005

Change the Weather History Date:

Monday, January 10, 2005

  Actual Average Record
Temperature  
Mean Temperature 62 °F 49 °F  
Max Temperature 70 °F 59 °F 81 °F (1907)
Min Temperature 53 °F 39 °F 10 °F (1962)
Degree Days  
Heating Degree Days 4 16  
Month to date heating degree days 160  
Since 1 July heating degree days 949  
Growing Degree Days 12 (Base 50)    
Moisture  
Dew Point 58 °F    
Average Humidity 92    
Maximum Humidity 100    
Minimum Humidity 76    
Precipitation  
Precipitation 0.01 in 0.15 in 6.16 in (1925)
Month to date precipitation 1.48  
Year to date precipitation 1.48  
Snow  
Snow 0.00 in - 1.00 in (1973)
Month to date snowfall  
Since 1 July snowfall  
Snow Depth -    
Sea Level Pressure  
Sea Level Pressure 30.20 in    
Wind  
Wind Speed 5 mph (SSE)    
Max Wind Speed 10 mph    
Max Gust Speed -    
Visibility 4 miles    
Events Fog , Rain    
T = Trace of Precipitation, MM = Missing Value Source: NWS Daily Summary

Daily Weather History Graph

Daily Weather History Graph

Search for Another Location

Airport or City:

Trip Planner

Search our weather history database for the weather conditions in past years. The results will help you decide how hot, cold, wet, or windy it might be!

Date:

Astronomy

Jan. 10, 2005 Rise Set
Actual Time 7:10 AM CST 5:25 PM CST
Civil Twilight 6:43 AM CST 5:52 PM CST
Nautical Twilight 6:13 AM CST 6:22 PM CST
Astronomical Twilight 5:44 AM CST 6:51 PM CST
Moon 7:37 AM CST (1/10) 5:43 PM CST (1/10)
Length of Visible Light 11h 08m
Length of Day
10h 15m
New Moon, 0% of the Moon is Illuminated
Jan 10
New Moon
Jan 17
First Quarter
Jan 25
Full
Feb 2
Last Quarter
Feb 8
New

Hourly Weather History & Observations

Time (CST) Temp. Dew Point Humidity Pressure Visibility Wind Dir Wind Speed Gust Speed Precip Events Conditions
12:08 AM 55.4 °F 53.6 °F 94% 30.24 in 0.2 mi SE 3.5 mph - N/A Fog Fog
12:30 AM 55.4 °F 53.6 °F 94% 30.24 in 0.5 mi SE 3.5 mph - 0.00 in Fog , Rain Light Rain
12:40 AM 55.4 °F 53.6 °F 94% 30.24 in 0.2 mi SSE 4.6 mph - 0.00 in Fog , Rain Light Rain
12:53 AM 53.1 °F 52.0 °F 96% 30.25 in 0.2 mi SSE 4.6 mph - 0.00 in Fog Fog
1:53 AM 54.0 °F 52.0 °F 93% 30.26 in 0.2 mi Calm Calm - 0.01 in Fog Fog
2:00 AM 55.4 °F 53.6 °F 94% 30.24 in 0.8 mi Calm Calm - N/A   Overcast
2:29 AM 57.2 °F 57.2 °F 100% 30.24 in 2.0 mi Calm Calm - N/A   Overcast
2:42 AM 57.2 °F 55.4 °F 94% 30.24 in 2.0 mi Calm Calm - N/A   Overcast
2:53 AM 57.9 °F 55.9 °F 93% 30.25 in 3.0 mi South 5.8 mph - N/A   Overcast
3:07 AM 57.2 °F 55.4 °F 94% 30.23 in 1.5 mi SE 9.2 mph - N/A   Mostly Cloudy
3:10 AM 55.4 °F 55.4 °F 100% 30.22 in 0.8 mi SE 8.1 mph - N/A   Mostly Cloudy
3:25 AM 57.2 °F 55.4 °F 94% 30.22 in 2.0 mi SSE 4.6 mph - N/A   Partly Cloudy
3:39 AM 55.4 °F 53.6 °F 94% 30.23 in 1.8 mi Calm Calm - N/A   Mostly Cloudy
3:53 AM 57.0 °F 55.0 °F 93% 30.25 in 2.5 mi SE 4.6 mph - N/A   Mostly Cloudy
4:05 AM 57.2 °F 55.4 °F 94% 30.23 in 2.5 mi SE 5.8 mph - N/A   Overcast
4:13 AM 57.2 °F 55.4 °F 94% 30.23 in 1.0 mi SSE 3.5 mph - N/A   Overcast
4:20 AM 57.2 °F 55.4 °F 94% 30.23 in 1.2 mi SE 6.9 mph - N/A   Overcast
4:26 AM 57.2 °F 55.4 °F 94% 30.23 in 2.0 mi ESE 3.5 mph - N/A   Overcast
4:35 AM 57.2 °F 55.4 °F 94% 30.23 in 1.2 mi ESE 3.5 mph - N/A   Overcast
4:53 AM 57.9 °F 57.0 °F 97% 30.25 in 2.0 mi SSE 3.5 mph - N/A   Overcast
5:06 AM 57.2 °F 57.2 °F 100% 30.23 in 3.0 mi SSE 3.5 mph - N/A   Overcast
5:17 AM 57.2 °F 57.2 °F 100% 30.23 in 2.5 mi SSE 5.8 mph - N/A   Overcast
5:34 AM 59.0 °F 57.2 °F 94% 30.23 in 3.0 mi SSE 3.5 mph - N/A   Overcast
5:53 AM 57.9 °F 57.0 °F 97% 30.25 in 4.0 mi SSE 4.6 mph - N/A   Overcast
6:02 AM 57.2 °F 57.2 °F 100% 30.24 in 4.0 mi SSE 3.5 mph - N/A   Overcast
6:53 AM 59.0 °F 57.0 °F 93% 30.25 in 4.0 mi SE 4.6 mph - N/A   Overcast
7:02 AM 59.0 °F 57.2 °F 94% 30.23 in 2.5 mi SE 5.8 mph - N/A   Overcast
7:23 AM 59.0 °F 57.2 °F 94% 30.24 in 1.5 mi ESE 4.6 mph - N/A   Overcast
7:53 AM 59.0 °F 57.0 °F 93% 30.26 in 1.5 mi SE 6.9 mph - N/A   Overcast
8:00 AM 59.0 °F 57.2 °F 94% 30.24 in 2.0 mi SE 8.1 mph - N/A   Overcast
8:53 AM 60.1 °F 57.9 °F 93% 30.27 in 2.0 mi SSE 5.8 mph - N/A   Overcast
9:53 AM 61.0 °F 59.0 °F 93% 30.27 in 7.0 mi SSE 6.9 mph - N/A   Overcast
10:53 AM 63.0 °F 60.1 °F 90% 30.26 in 10.0 mi SSE 8.1 mph - N/A   Overcast
11:04 AM 64.4 °F 60.8 °F 88% 30.24 in 10.0 mi SSE 6.9 mph - N/A   Overcast
11:53 AM 66.0 °F 61.0 °F 84% 30.22 in 7.0 mi SE 6.9 mph - N/A   Overcast
12:53 PM 66.9 °F 61.0 °F 81% 30.18 in 7.0 mi SSE 9.2 mph - N/A   Overcast
1:00 PM 66.2 °F 60.8 °F 83% 30.16 in - SE 8.1 mph - N/A   Overcast
1:53 PM 68.0 °F 62.1 °F 81% 30.16 in 7.0 mi SSE 5.8 mph - N/A   Overcast
2:05 PM 69.8 °F 62.6 °F 78% 30.14 in 7.0 mi Variable 3.5 mph - N/A   Overcast
2:53 PM 70.0 °F 62.1 °F 76% 30.14 in 7.0 mi South 6.9 mph - N/A   Overcast
3:44 PM 69.8 °F 62.6 °F 78% 30.13 in 7.0 mi South 10.4 mph - N/A   Overcast
3:53 PM 68.0 °F 62.1 °F 81% 30.14 in 7.0 mi South 10.4 mph - N/A   Overcast
4:53 PM 66.9 °F 62.1 °F 84% 30.12 in 5.0 mi SSE 6.9 mph - N/A   Haze
5:31 PM 66.2 °F 62.6 °F 88% 30.11 in 5.0 mi SSE 5.8 mph - N/A   Haze
5:53 PM 64.9 °F 61.0 °F 87% 30.13 in 5.0 mi SSE 8.1 mph - N/A   Haze
6:53 PM 64.9 °F 61.0 °F 87% 30.12 in 7.0 mi SSE 5.8 mph - N/A   Haze
7:53 PM 63.0 °F 60.1 °F 90% 30.11 in 5.0 mi SE 5.8 mph - N/A   Haze
8:53 PM 64.0 °F 61.0 °F 90% 30.11 in - SE 4.6 mph - N/A   Haze
9:41 PM 64.4 °F 62.6 °F 94% 30.10 in 5.0 mi SE 6.9 mph - N/A   Haze
9:53 PM 64.0 °F 62.1 °F 93% 30.11 in 5.0 mi SE 6.9 mph - N/A   Haze
10:01 PM 64.4 °F 62.6 °F 94% 30.10 in 2.5 mi SSE 4.6 mph - N/A   Haze
10:53 PM 64.9 °F 62.1 °F 90% 30.12 in 2.5 mi SE 4.6 mph - N/A   Haze
11:00 PM 64.4 °F 62.6 °F 94% 30.10 in - SE 5.8 mph - N/A   Haze
11:10 PM 64.4 °F 62.6 °F 94% 30.10 in 2.5 mi SE 5.8 mph - N/A   Haze
11:53 PM 66.0 °F 64.0 °F 93% 30.11 in 2.5 mi South 4.6 mph - N/A   Haze